Location: Mahannah Oil Field
(37.4664°N, 96.6003°W)
Time: 03:18:22
(UTC+00:00)

X-37B - Pass Details

Date: 29 November 2020
Orbit: 383 x 391 km, 45.1° (Epoch: 22 January)

Event Time Altitude Azimuth Distance (km) Brightness Sun altitude
Rises 23:46:10 0° 248° (WSW) 2,249 7.1 -7.6°
Reaches altitude 10° 23:48:14 10° 251° (WSW) 1,400 5.2 -8.0°
Maximum altitude 23:51:22 64° 334° (NNW) 427 0.8 -8.5°
Enters shadow 23:54:11 12° 56° (NE) 1,272 2.6 -9.1°
